Location: Newark
(45.4422°N, 16.2769°E)
Time: 08:35:37
(UTC+00:00)

A-11 Canister half - All Passes

Search period start: 09 December 2019 00:00
Search period end: 19 December 2019 00:00
Orbit: 1526 x 1683 km, 47.3° (Epoch: 08 December)

Date Brightness Start Highest point End Pass type
(mag) Time Alt. Az. Time Alt. Az. Time Alt. Az.
09 Dec - 03:24:18 10° S 03:32:01 26° SE 03:39:44 10° E visible
09 Dec - 05:25:50 10° SW 05:35:49 66° SSE 05:45:48 10° ENE visible
09 Dec - 07:30:47 10° W 07:41:02 82° N 07:51:07 10° E daylight
09 Dec - 09:36:25 10° WNW 09:46:37 88° SSW 09:56:31 10° ESE daylight
09 Dec - 11:41:52 10° WNW 11:51:12 46° SW 12:00:16 10° SSE daylight
09 Dec - 13:50:26 10° W 13:54:13 13° WSW 13:57:58 10° SW daylight
10 Dec - 03:02:58 10° S 03:10:26 24° SE 03:17:56 10° E visible
10 Dec - 05:04:13 10° SW 05:14:11 64° SSE 05:24:07 10° ENE visible
10 Dec - 07:09:05 10° W 07:19:20 83° N 07:29:26 10° E daylight
10 Dec - 09:14:43 10° WNW 09:24:56 90° SSW 09:34:52 10° ESE daylight
10 Dec - 11:20:09 10° WNW 11:29:36 48° SW 11:38:46 10° SSE daylight
10 Dec - 13:28:15 10° W 13:32:41 14° WSW 13:37:05 10° SSW daylight
11 Dec - 02:41:38 10° S 02:48:52 23° SE 02:56:07 10° E visible
11 Dec - 04:42:37 10° SW 04:52:32 62° SSE 05:02:27 10° ENE visible
11 Dec - 06:47:24 10° W 06:57:38 84° N 07:07:46 10° E daylight
11 Dec - 08:53:01 10° WNW 09:03:16 89° NNE 09:13:13 10° ESE daylight
11 Dec - 10:58:28 10° WNW 11:08:00 50° SW 11:17:15 10° SSE daylight
11 Dec - 13:06:10 10° W 13:11:10 15° WSW 13:16:05 10° SSW daylight
12 Dec - 02:20:21 10° S 02:27:17 22° SE 02:34:17 10° E visible
12 Dec - 04:21:03 10° SW 04:30:54 60° SSE 04:40:47 10° ENE visible
12 Dec - 06:25:43 10° W 06:35:57 84° N 06:46:06 10° E daylight
12 Dec - 08:31:21 10° WNW 08:41:35 88° NNE 08:51:35 10° ESE daylight
12 Dec - 10:36:46 10° WNW 10:46:23 52° SW 10:55:44 10° SE daylight
12 Dec - 12:44:09 10° W 12:49:37 16° WSW 12:55:02 10° SSW daylight
13 Dec - 01:59:05 10° SSE 02:05:44 20° SE 02:12:26 10° E visible
13 Dec - 03:59:28 10° SW 04:09:15 58° SE 04:19:06 10° ENE visible
13 Dec - 06:04:01 10° WSW 06:14:16 85° NNW 06:24:26 10° ENE daylight
13 Dec - 08:09:39 10° WNW 08:19:54 87° NNE 08:29:55 10° ESE daylight
13 Dec - 10:15:04 10° WNW 10:24:46 54° SW 10:34:12 10° SE daylight
13 Dec - 12:22:11 10° W 12:28:06 18° SW 12:33:54 10° SSW daylight
14 Dec - 01:37:51 10° SSE 01:44:10 19° SE 01:50:32 10° E visible
14 Dec - 03:37:53 10° SW 03:47:37 56° SE 03:57:26 10° ENE visible
14 Dec - 05:42:20 10° WSW 05:52:35 86° NNW 06:02:45 10° ENE visible
14 Dec - 07:47:57 10° WNW 07:58:13 86° NNE 08:08:16 10° ESE daylight
14 Dec - 09:53:22 10° WNW 10:03:09 56° SW 10:12:40 10° SE daylight
14 Dec - 12:00:16 10° W 12:06:32 19° SW 12:12:43 10° SSW daylight
15 Dec - 01:16:40 10° SSE 01:22:37 18° SE 01:28:37 10° E visible
15 Dec - 03:16:21 10° SW 03:25:59 54° SE 03:35:45 10° ENE visible
15 Dec - 05:20:40 10° WSW 05:30:53 87° NNW 05:41:05 10° ENE visible
15 Dec - 07:26:17 10° W 07:36:32 85° N 07:46:36 10° E daylight
15 Dec - 09:31:41 10° WNW 09:41:31 59° SW 09:51:07 10° SE daylight
15 Dec - 11:38:22 10° W 11:45:00 20° SW 11:51:31 10° SSW daylight
16 Dec - 00:55:32 10° SSE 01:01:04 16° ESE 01:06:39 10° E visible
16 Dec - 02:54:47 10° SW 03:04:22 52° SE 03:14:03 10° ENE visible
16 Dec - 04:58:59 10° WSW 05:09:11 88° NNW 05:19:24 10° ENE visible
16 Dec - 07:04:35 10° W 07:14:50 84° N 07:24:56 10° E daylight
16 Dec - 09:10:00 10° WNW 09:19:53 61° SSW 09:29:33 10° SE daylight
16 Dec - 11:16:30 10° W 11:23:26 22° SW 11:30:16 10° S daylight
17 Dec - 00:34:27 10° SSE 00:39:32 15° ESE 00:44:38 10° E visible
17 Dec - 02:33:15 10° SSW 02:42:44 50° SE 02:52:22 10° ENE visible
17 Dec - 04:37:19 10° WSW 04:47:31 89° N 04:57:43 10° ENE visible
17 Dec - 06:42:53 10° W 06:53:09 83° N 07:03:16 10° E daylight
17 Dec - 08:48:18 10° WNW 08:58:15 63° SSW 09:07:59 10° SE daylight
17 Dec - 10:54:39 10° W 11:01:52 23° SW 11:08:59 10° S daylight
18 Dec - 00:13:27 10° SSE 00:17:59 14° ESE 00:22:33 10° E visible
18 Dec - 02:11:44 10° SSW 02:21:07 48° SE 02:30:40 10° ENE visible
18 Dec - 04:15:39 10° WSW 04:25:49 89° SSE 04:36:03 10° ENE visible
18 Dec - 06:21:12 10° W 06:31:27 83° N 06:41:35 10° E daylight
18 Dec - 08:26:37 10° WNW 08:36:37 65° SSW 08:46:23 10° SE daylight
18 Dec - 10:32:51 10° W 10:40:19 24° SW 10:47:41 10° S daylight
